FW3318 Weather Reports


time (UTC)temp
C
wind
direction
speed
KPH
gust
KPH
rain 1hr
cm
rain 24hr
cm
rain mn
cm
humidity
%
barometer
mb
20240723055540 22 153 0.0 3.2 0.00 0.00 0.00 70 1013.8
20240723055039 22 196 0.0 3.2 0.00 0.00 0.00 68 1013.7
20240723054540 22 196 0.0 3.2 0.00 0.00 0.00 68 1013.7
20240723054040 22 219 0.0 1.6 0.00 0.00 0.00 66 1013.7
20240723053539 22 219 0.0 1.6 0.00 0.00 0.00 66 1013.7
20240723053040 22 219 0.0 1.6 0.00 0.00 0.00 68 1013.6
20240723052540 22 219 0.0 1.6 0.00 0.00 0.00 67 1013.6
20240723052039 23 219 0.0 1.6 0.00 0.00 0.00 64 1013.6
20240723051542 23 219 0.0 3.2 0.00 0.00 0.00 65 1013.5
20240723051039 23 235 0.0 3.2 0.00 0.00 0.00 66 1013.6
20240723050539 23 235 0.0 3.2 0.00 0.00 0.00 64 1013.6
20240723050042 23 235 0.0 3.2 0.00 0.00 0.00 61 1013.6
20240723045537 23 234 0.0 3.2 0.00 0.00 0.00 61 1013.6
20240723045038 23 234 0.0 6.4 0.00 0.00 0.00 60 1013.7
20240723044554 23 196 0.0 6.4 0.00 0.00 0.00 62 1013.6
20240723044037 23 248 0.0 8.0 0.00 0.00 0.00 62 1013.7
20240723043538 24 207 0.0 8.0 0.00 0.00 0.00 63 1013.7
20240723043038 24 246 0.0 4.8 0.00 0.00 0.00 61 1013.7
20240723042538 24 215 0.0 4.8 0.00 0.00 0.00 58 1013.7
20240723042038 24 214 0.0 6.4 0.00 0.00 0.00 58 1013.6
20240723041542 24 238 1.6 6.4 0.00 0.00 0.00 57 1013.7
20240723041040 24 217 0.0 6.4 0.00 0.00 0.00 57 1013.7
20240723040537 24 243 0.0 4.8 0.00 0.00 0.00 57 1013.6
20240723040036 25 208 0.0 3.2 0.00 0.00 0.00 57 1013.6
20240723035536 25 207 0.0 3.2 0.00 0.00 0.00 55 1013.7
20240723035035 25 248 0.0 3.2 0.00 0.00 0.00 56 1013.6
20240723034539 25 253 0.0 6.4 0.00 0.00 0.00 56 1013.5
20240723034036 25 238 0.0 6.4 0.00 0.00 0.00 56 1013.6
20240723033535 25 232 0.0 6.4 0.00 0.00 0.00 58 1013.7
20240723033043 25 178 0.0 6.4 0.00 0.00 0.00 53 1013.6
20240723032536 25 203 0.0 4.8 0.00 0.00 0.00 53 1013.7
20240723032034 25 203 0.0 4.8 0.00 0.00 0.00 54 1013.7
20240723031545 25 236 0.0 4.8 0.00 0.00 0.00 53 1013.7
20240723031034 25 236 0.0 14.5 0.00 0.00 0.00 51 1013.7
20240723030532 25 234 1.6 14.5 0.00 0.00 0.00 52 1013.8
20240723030037 25 202 0.0 6.4 0.00 0.00 0.00 54 1013.7
20240723025531 25 216 1.6 6.4 0.00 0.00 0.00 51 1013.8
20240723025031 25 210 1.6 6.4 0.00 0.00 0.00 54 1013.8
20240723024530 25 269 0.0 9.7 0.00 0.00 0.00 52 1013.9
20240723024030 25 227 1.6 9.7 0.00 0.00 0.00 52 1013.9
20240723023529 26 213 1.6 8.0 0.00 0.00 0.00 51 1013.9
20240723023029 26 227 1.6 8.0 0.00 0.00 0.00 51 1014.0
20240723022529 26 197 1.6 11.3 0.00 0.00 0.00 50 1013.9
20240723022027 26 181 3.2 11.3 0.00 0.00 0.00 49 1014.0
20240723021527 26 221 1.6 9.7 0.00 0.00 0.00 57 1014.0
20240723021027 26 248 1.6 8.0 0.00 0.00 0.00 54 1014.0
20240723020528 26 171 1.6 6.4 0.00 0.00 0.00 50 1014.0
20240723020025 26 215 1.6 8.0 0.00 0.00 0.00 51 1014.0
20240723015523 26 229 0.0 6.4 0.00 0.00 0.00 53 1014.1
20240723015025 26 186 0.0 6.4 0.00 0.00 0.00 51 1014.2
20240723014530 26 245 0.0 4.8 0.00 0.00 0.00 49 1014.1
20240723014023 26 325 0.0 14.5 0.00 0.00 0.00 49 1014.3
20240723013625 26 251 3.2 14.5 0.00 0.00 0.00 50 1014.3
20240723013021 27 227 0.0 4.8 0.00 0.00 0.00 50 1014.2
20240723012521 27 223 1.6 4.8 0.00 0.00 0.00 48 1014.2
20240723012021 27 244 0.0 4.8 0.00 0.00 0.00 49 1014.2
20240723011520 27 265 0.0 4.8 0.00 0.00 0.00 49 1014.3
20240723011020 27 213 1.6 6.4 0.00 0.00 0.00 51 1014.3
20240723010518 27 163 3.2 8.0 0.00 0.00 0.00 51 1014.3
20240723010023 27 232 3.2 8.0 0.00 0.00 0.00 46 1014.3
20240723005518 27 223 1.6 4.8 0.00 0.00 0.00 49 1014.4
20240723005018 27 231 0.0 3.2 0.00 0.00 0.00 45 1014.4
20240723004518 27 230 0.0 6.4 0.00 0.00 0.00 47 1014.4
20240723004017 27 230 0.0 6.4 0.00 0.00 0.00 48 1014.5
20240723003516 27 137 1.6 6.4 0.00 0.00 0.00 45 1014.5
20240723003017 27 152 1.6 11.3 0.00 0.00 0.00 46 1014.5
20240723002516 27 224 3.2 11.3 0.00 0.00 0.00 48 1014.6
20240723002016 27 268 1.6 6.4 0.00 0.00 0.00 49 1014.7
20240723001516 27 5 3.2 6.4 0.00 0.00 0.00 49 1014.7
20240723001016 27 238 0.0 4.8 0.00 0.00 0.00 49 1014.7
20240723000514 27 193 0.0 6.4 0.00 0.00 0.00 43 1014.7
20240723000013 27 193 0.0 6.4 0.00 0.00 0.00 46 1014.8
20240722235512 27 265 0.0 6.4 0.00 0.00 0.00 48 1014.7
20240722235011 27 192 0.0 9.7 0.00 0.00 0.00 52 1014.7
20240722234511 27 217 3.2 9.7 0.00 0.00 0.00 51 1014.8
20240722234113 27 146 3.2 6.4 0.00 0.00 0.00 47 1014.8
20240722233510 27 319 0.0 11.3 0.00 0.00 0.00 48 1014.9
20240722233010 27 223 0.0 9.7 0.00 0.00 0.00 48 1015.0
20240722232509 27 234 3.2 9.7 0.00 0.00 0.00 49 1014.9
20240722232009 27 166 1.6 9.7 0.00 0.00 0.00 52 1015.0
20240722231511 27 156 3.2 8.0 0.00 0.00 0.00 53 1015.1
20240722231008 27 208 1.6 9.7 0.00 0.00 0.00 51 1015.2
20240722230506 27 215 0.0 9.7 0.00 0.00 0.00 47 1015.3
20240722230006 27 248 0.0 6.4 0.00 0.00 0.00 53 1015.2
20240722225505 27 237 0.0 6.4 0.00 0.00 0.00 45 1015.3
20240722225006 27 221 0.0 3.2 0.00 0.00 0.00 51 1015.4
20240722224504 27 221 0.0 4.8 0.00 0.00 0.00 46 1015.4
20240722224003 26 217 0.0 4.8 0.00 0.00 0.00 51 1015.5
20240722223503 26 327 0.0 1.6 0.00 0.00 0.00 50 1015.6
20240722223006 26 331 0.0 8.0 0.00 0.00 0.00 45 1015.6
20240722222502 26 274 0.0 3.2 0.00 0.00 0.00 49 1015.6
20240722222004 26 121 0.0 9.7 0.00 0.00 0.00 44 1015.6
20240722221600 26 121 0.0 9.7 0.00 0.00 0.00 53 1015.7
20240722221059 26 228 1.6 8.0 0.00 0.00 0.00 54 1015.7
20240722220559 26 260 0.0 6.4 0.00 0.00 0.00 53 1015.8
20240722220059 26 234 0.0 3.2 0.00 0.00 0.00 53 1015.8
20240722215559 26 234 0.0 4.8 0.00 0.00 0.00 53 1015.8
20240722215055 26 230 0.0 6.4 0.00 0.00 0.00 54 1015.8
20240722214555 26 225 0.0 4.8 0.00 0.00 0.00 51 1015.9
20240722214054 26 225 0.0 8.0 0.00 0.00 0.00 50 1016.0
20240722213553 25 222 0.0 8.0 0.00 0.00 0.00 49 1016.0
20240722213103 25 238 0.0 3.2 0.00 0.00 0.00 55 1016.1
20240722212551 25 140 0.0 4.8 0.00 0.00 0.00 58 1016.1
20240722212051 25 140 0.0 9.7 0.00 0.00 0.00 55 1016.2
20240722211551 25 223 3.2 12.9 0.00 0.00 0.00 58 1016.2
20240722211050 25 163 0.0 12.9 0.00 0.00 0.00 57 1016.3
20240722210548 25 215 1.6 6.4 0.00 0.00 0.00 55 1016.2
20240722210047 25 203 1.6 6.4 0.00 0.00 0.00 57 1016.4
20240722205545 24 236 0.0 6.4 0.00 0.00 0.00 59 1016.4
20240722205045 24 218 1.6 6.4 0.00 0.00 0.00 60 1016.5
20240722204543 24 177 0.0 3.2 0.00 0.00 0.00 60 1016.5
20240722204043 24 271 0.0 6.4 0.00 0.00 0.00 59 1016.6
20240722203540 23 140 0.0 8.0 0.00 0.00 0.00 59 1016.6
20240722203039 23 215 3.2 8.0 0.00 0.00 0.00 61 1016.6
20240722202539 23 207 0.0 4.8 0.00 0.00 0.00 60 1016.7
20240722202037 23 207 0.0 4.8 0.00 0.00 0.00 60 1016.8
20240722201536 23 209 0.0 6.4 0.00 0.00 0.00 62 1016.9
20240722201035 23 136 1.6 8.0 0.00 0.00 0.00 63 1016.9
20240722200537 23 123 1.6 8.0 0.00 0.00 0.00 62 1016.9
20240722200034 23 217 1.6 8.0 0.00 0.00 0.00 63 1016.9
20240722195532 23 146 1.6 4.8 0.00 0.00 0.00 64 1017.1
20240722195030 23 223 0.0 6.4 0.00 0.00 0.00 65 1017.1
20240722194535 23 169 0.0 6.4 0.00 0.00 0.00 63 1017.1
20240722194028 22 231 0.0 4.8 0.00 0.00 0.00 68 1017.1
20240722193530 22 180 0.0 4.8 0.00 0.00 0.00 64 1017.2
20240722193030 22 189 1.6 4.8 0.00 0.00 0.00 66 1017.2
20240722192524 22 158 0.0 4.8 0.00 0.00 0.00 64 1017.3
20240722192023 22 161 1.6 4.8 0.00 0.00 0.00 61 1017.3
20240722191534 21 219 1.6 4.8 0.00 0.00 0.00 65 1017.4
20240722191020 21 178 1.6 4.8 0.00 0.00 0.00 66 1017.5
20240722190519 21 192 1.6 4.8 0.00 0.00 0.00 69 1017.4
20240722190020 21 113 0.0 4.8 0.00 0.00 0.00 66 1017.4
20240722185515 21 113 0.0 4.8 0.00 0.00 0.00 68 1017.5
20240722185014 20 222 0.0 1.6 0.00 0.00 0.00 70 1017.6
20240722184514 20 221 0.0 1.6 0.00 0.00 0.00 71 1017.6
20240722184014 20 221 0.0 3.2 0.00 0.00 0.00 70 1017.5
20240722183511 20 221 0.0 3.2 0.00 0.00 0.00 70 1017.6
20240722183010 20 221 0.0 1.6 0.00 0.00 0.00 72 1017.7
20240722182509 20 221 0.0 1.6 0.00 0.00 0.00 69 1017.8
20240722182007 20 221 0.0 1.6 0.00 0.00 0.00 73 1018.0
20240722181506 20 221 0.0 0.0 0.00 0.00 0.00 72 1018.0
20240722181004 20 221 0.0 0.0 0.00 0.00 0.00 71 1018.1
20240722180503 19 221 0.0 0.0 0.00 0.00 0.00 70 1018.1
20240722180001 19 221 0.0 0.0 0.00 0.00 0.00 73 1018.1
20240722175603 18 221 0.0 0.0 0.00 0.00 0.00 76 1018.2
20240722175059 18 221 0.0 0.0 0.00 0.00 0.00 75 1018.1
20240722174558 18 221 0.0 0.0 0.00 0.00 0.00 75 1018.3
20240722174059 18 221 0.0 0.0 0.00 0.00 0.00 72 1018.3
20240722173555 18 221 0.0 0.0 0.00 0.00 0.00 76 1018.5
20240722173054 18 221 0.0 0.0 0.00 0.00 0.00 74 1018.4
20240722172552 17 221 0.0 0.0 0.00 0.00 0.00 75 1018.6
20240722172050 17 221 0.0 0.0 0.00 0.00 0.00 77 1018.6
20240722171549 17 221 0.0 0.0 0.00 0.00 0.00 76 1018.6
20240722171047 16 221 0.0 0.0 0.00 0.00 0.00 77 1018.6
20240722170547 16 221 0.0 0.0 0.00 0.00 0.00 78 1018.6
20240722170046 16 221 0.0 0.0 0.00 0.00 0.00 77 1018.7
20240722165544 16 221 0.0 0.0 0.00 0.00 0.00 79 1018.8
20240722165043 16 221 0.0 0.0 0.00 0.00 0.00 80 1018.8
20240722164601 15 221 0.0 0.0 0.00 0.00 0.00 82 1018.7
20240722164045 15 221 0.0 0.0 0.00 0.00 0.00 82 1018.8
20240722163542 15 221 0.0 0.0 0.00 0.00 0.00 83 1018.7
20240722163040 14 221 0.0 0.0 0.00 0.00 0.00 83 1018.8
20240722162538 14 221 0.0 0.0 0.00 0.00 0.00 84 1018.7
20240722162039 13 221 0.0 0.0 0.00 0.00 0.00 85 1018.6
20240722161535 13 221 0.0 0.0 0.00 0.00 0.00 87 1018.6
20240722161034 13 221 0.0 0.0 0.00 0.00 0.00 89 1018.5
20240722160536 12 221 0.0 0.0 0.00 0.00 0.00 89 1018.7
20240722160032 12 221 0.0 0.0 0.00 0.00 0.00 91 1018.5
20240722155530 12 221 0.0 0.0 0.00 0.00 0.00 92 1018.7
20240722155030 11 221 0.0 0.0 0.00 0.00 0.00 92 1018.8
20240722154533 11 221 0.0 0.0 0.00 0.00 0.00 93 1018.8
20240722154029 11 221 0.0 0.0 0.00 0.00 0.00 93 1018.8
20240722153530 11 221 0.0 0.0 0.00 0.00 0.00 94 1018.7
20240722153035 11 221 0.0 0.0 0.00 0.00 0.00 94 1018.8
20240722152527 11 221 0.0 0.0 0.00 0.00 0.00 95 1018.8
20240722152027 10 221 0.0 0.0 0.00 0.00 0.00 95 1018.9
20240722151527 10 221 0.0 0.0 0.00 0.00 0.00 95 1018.7
20240722151026 10 221 0.0 0.0 0.00 0.00 0.00 95 1018.7
20240722150526 10 221 0.0 0.0 0.00 0.00 0.00 96 1018.8
20240722150026 10 221 0.0 0.0 0.00 0.00 0.00 96 1018.8
20240722145526 10 221 0.0 0.0 0.00 0.00 0.00 96 1018.8
20240722145025 10 222 0.0 0.0 0.00 0.00 0.00 96 1018.7
20240722144525 10 222 0.0 0.0 0.00 0.00 0.00 96 1018.6
20240722144124 10 222 0.0 0.0 0.00 0.00 0.00 96 1018.6
20240722143523 10 222 0.0 0.0 0.00 0.00 0.00 96 1018.5
20240722143032 9 222 0.0 0.0 0.00 0.00 0.00 96 1018.6
20240722142522 9 222 0.0 0.0 0.00 0.00 0.00 96 1018.6
20240722142021 9 222 0.0 0.0 0.00 0.00 0.00 96 1018.6
20240722141523 9 222 0.0 0.0 0.00 0.00 0.00 96 1018.8
20240722141021 9 222 0.0 0.0 0.00 0.00 0.00 96 1018.7
20240722140620 9 222 0.0 0.0 0.00 0.00 0.00 95 1018.6
20240722140019 9 222 0.0 0.0 0.00 0.00 0.00 95 1018.7
20240722135520 9 222 0.0 0.0 0.00 0.00 0.00 95 1018.8
20240722135018 10 222 0.0 0.0 0.00 0.00 0.00 95 1018.7
20240722134520 10 222 0.0 0.0 0.00 0.00 0.00 96 1018.8
20240722134021 10 222 0.0 0.0 0.00 0.00 0.00 95 1018.8
20240722133517 10 222 0.0 0.0 0.00 0.00 0.00 96 1018.7
20240722133022 10 222 0.0 0.0 0.00 0.00 0.00 96 1018.9
20240722132515 10 222 0.0 0.0 0.00 0.00 0.00 96 1018.9
20240722132015 10 222 0.0 0.0 0.00 0.00 0.00 96 1018.9
20240722131516 10 222 0.0 0.0 0.00 0.00 0.00 95 1018.9
20240722131014 10 222 0.0 0.0 0.00 0.00 0.00 95 1018.9
20240722130515 10 222 0.0 0.0 0.00 0.00 0.00 95 1019.0
20240722130034 10 222 0.0 0.0 0.00 0.00 0.00 95 1019.0
20240722125511 10 222 0.0 0.0 0.00 0.00 0.00 95 1019.1
20240722125010 10 222 0.0 0.0 0.00 0.00 0.00 95 1019.1
20240722124510 10 222 0.0 0.0 0.00 0.00 0.00 95 1019.1
20240722124010 10 222 0.0 0.0 0.00 0.00 0.00 95 1019.1
20240722123512 10 222 0.0 0.0 0.00 0.00 0.00 95 1019.1
20240722123011 10 222 0.0 0.0 0.00 0.00 0.00 95 1019.2
20240722122508 10 222 0.0 0.0 0.00 0.00 0.00 95 1019.3
20240722122007 10 222 0.0 0.0 0.00 0.00 0.00 95 1019.3
20240722121508 10 222 0.0 0.0 0.00 0.00 0.00 95 1019.4
20240722121006 10 222 0.0 0.0 0.00 0.00 0.00 95 1019.4
20240722120505 11 222 0.0 0.0 0.00 0.00 0.00 95 1019.4
20240722120008 11 222 0.0 0.0 0.00 0.00 0.00 95 1019.4
20240722115504 11 222 0.0 0.0 0.00 0.00 0.00 95 1019.4
20240722115003 11 222 0.0 0.0 0.00 0.00 0.00 95 1019.4
20240722114502 11 222 0.0 0.0 0.00 0.00 0.00 95 1019.4
20240722114002 11 222 0.0 0.0 0.00 0.00 0.00 95 1019.5
20240722113503 11 222 0.0 0.0 0.00 0.00 0.00 94 1019.4
20240722113001 11 222 0.0 0.0 0.00 0.00 0.00 94 1019.5
20240722112502 11 222 0.0 0.0 0.00 0.00 0.00 94 1019.5
20240722112100 11 222 0.0 0.0 0.00 0.00 0.00 94 1019.4
20240722111600 11 222 0.0 0.0 0.00 0.00 0.00 94 1019.5
20240722111059 11 222 0.0 0.0 0.00 0.00 0.00 94 1019.5
20240722110559 11 222 0.0 0.0 0.00 0.00 0.00 94 1019.4
20240722110112 11 222 0.0 1.6 0.00 0.00 0.00 94 1019.4
20240722105556 11 222 0.0 1.6 0.00 0.00 0.00 93 1019.4
20240722105055 12 222 0.0 0.0 0.00 0.00 0.00 93 1019.4
20240722104555 12 222 0.0 0.0 0.00 0.00 0.00 93 1019.3
20240722104056 12 222 0.0 0.0 0.00 0.00 0.00 93 1019.3
20240722103553 12 222 0.0 0.0 0.00 0.00 0.00 93 1019.3
20240722103058 12 222 0.0 0.0 0.00 0.00 0.00 93 1019.2
20240722102553 12 222 0.0 0.0 0.00 0.00 0.00 93 1019.2
20240722102054 12 222 0.0 0.0 0.00 0.00 0.00 92 1019.2
20240722101551 12 222 0.0 0.0 0.00 0.00 0.00 92 1019.3
20240722101050 12 222 0.0 0.0 0.00 0.00 0.00 92 1019.3
20240722100553 12 222 0.0 0.0 0.00 0.00 0.00 93 1019.3
20240722100055 12 222 0.0 0.0 0.00 0.00 0.00 92 1019.3
20240722095548 13 222 0.0 0.0 0.00 0.00 0.00 92 1019.2
20240722095047 13 222 0.0 0.0 0.00 0.00 0.00 92 1019.2
20240722094604 13 222 0.0 0.0 0.00 0.00 0.00 92 1019.2
20240722094046 13 222 0.0 0.0 0.00 0.00 0.00 92 1019.2
20240722093544 13 222 0.0 0.0 0.00 0.00 0.00 93 1019.3
20240722093055 13 222 0.0 0.0 0.00 0.00 0.00 93 1019.3
20240722092545 13 222 0.0 0.0 0.00 0.00 0.00 92 1019.3
20240722092043 13 222 0.0 0.0 0.00 0.00 0.00 92 1019.2
20240722091542 13 222 0.0 0.0 0.00 0.00 0.00 92 1019.2
20240722091043 13 222 0.0 0.0 0.00 0.00 0.00 92 1019.1
20240722090541 14 222 0.0 0.0 0.00 0.00 0.00 91 1019.3
20240722090043 14 222 0.0 0.0 0.00 0.00 0.00 91 1019.2
20240722085539 14 222 0.0 0.0 0.00 0.00 0.00 90 1019.3
20240722085041 14 222 0.0 0.0 0.00 0.00 0.00 89 1019.2
20240722084538 14 222 0.0 0.0 0.00 0.00 0.00 88 1019.3
20240722084036 14 222 0.0 0.0 0.00 0.00 0.00 87 1019.2
20240722083539 15 222 0.0 0.0 0.00 0.00 0.00 87 1019.2
20240722083035 15 222 0.0 0.0 0.00 0.00 0.00 86 1019.2
20240722082533 15 222 0.0 0.0 0.00 0.00 0.00 85 1019.1
20240722082033 15 222 0.0 0.0 0.00 0.00 0.00 85 1019.1
20240722081544 15 222 0.0 0.0 0.00 0.00 0.00 84 1019.1
20240722081031 15 222 0.0 0.0 0.00 0.00 0.00 83 1019.1
20240722080534 15 222 0.0 0.0 0.00 0.00 0.00 83 1019.0
20240722080029 16 222 0.0 0.0 0.00 0.00 0.00 82 1019.0
20240722075527 16 222 0.0 0.0 0.00 0.00 0.00 82 1019.1
20240722075027 16 222 0.0 0.0 0.00 0.00 0.00 82 1019.1
20240722074528 16 222 0.0 0.0 0.00 0.00 0.00 82 1019.1
20240722074029 16 222 0.0 0.0 0.00 0.00 0.00 82 1019.1
20240722073527 16 222 0.0 0.0 0.00 0.00 0.00 82 1019.1
20240722073029 16 222 0.0 0.0 0.00 0.00 0.00 82 1019.2
20240722072531 16 222 0.0 0.0 0.00 0.00 0.00 82 1019.3
20240722072026 17 222 0.0 0.0 0.00 0.00 0.00 82 1019.2
20240722071536 17 222 0.0 0.0 0.00 0.00 0.00 80 1019.3
20240722071026 17 222 0.0 0.0 0.00 0.00 0.00 79 1019.2
20240722070526 17 222 0.0 0.0 0.00 0.00 0.00 79 1019.1
20240722070029 17 222 0.0 0.0 0.00 0.00 0.00 79 1019.1
20240722065525 17 222 0.0 0.0 0.00 0.00 0.00 78 1019.2
20240722065027 18 222 0.0 0.0 0.00 0.00 0.00 78 1019.2
20240722064530 18 222 0.0 0.0 0.00 0.00 0.00 76 1019.2
20240722064024 18 222 0.0 0.0 0.00 0.00 0.00 77 1019.2
20240722063524 18 222 0.0 0.0 0.00 0.00 0.00 77 1019.2
20240722063028 18 222 0.0 0.0 0.00 0.00 0.00 77 1019.2
20240722062523 18 222 0.0 0.0 0.00 0.00 0.00 76 1019.2
20240722062028 18 222 0.0 0.0 0.00 0.00 0.00 75 1019.2
20240722061523 19 222 0.0 1.6 0.00 0.00 0.00 75 1019.3
20240722061023 19 222 0.0 1.6 0.00 0.00 0.00 73 1019.2
20240722060523 19 222 0.0 1.6 0.00 0.00 0.00 71 1019.2
20240722060022 20 222 0.0 1.6 0.00 0.00 0.00 71 1019.3